| time (UTC) | temp C | wind direction | speed KPH | gust KPH | rain 1hr cm | rain 24hr cm | rain mn cm | humidity % | barometer mb |
| 20260506224517 | 18 | 244 | 6.4 | 11.3 | 0.00 | 0.00 | 0.00 | 64 | 1020.7 |
| 20260506223615 | 18 | 236 | 8.0 | 14.5 | 0.00 | 0.00 | 0.00 | 64 | 1020.7 |
| 20260506222613 | 17 | 253 | 4.8 | 11.3 | 0.00 | 0.00 | 0.00 | 64 | 1020.9 |
| 20260506221632 | 18 | 233 | 8.0 | 17.7 | 0.00 | 0.00 | 0.00 | 64 | 1021.0 |
| 20260506220610 | 17 | 233 | 4.8 | 9.7 | 0.00 | 0.00 | 0.00 | 66 | 1020.9 |
| 20260506215608 | 17 | 250 | 8.0 | 16.1 | 0.00 | 0.00 | 0.00 | 66 | 1020.9 |
| 20260506214606 | 17 | 256 | 4.8 | 11.3 | 0.00 | 0.00 | 0.00 | 67 | 1021.0 |
| 20260506213605 | 16 | 249 | 4.8 | 12.9 | 0.00 | 0.00 | 0.00 | 67 | 1021.0 |
| 20260506212603 | 16 | 270 | 3.2 | 9.7 | 0.00 | 0.00 | 0.00 | 67 | 1021.0 |
| 20260506211621 | 16 | 270 | 3.2 | 11.3 | 0.00 | 0.00 | 0.00 | 69 | 1020.9 |
| 20260506210600 | 16 | 258 | 3.2 | 11.3 | 0.00 | 0.00 | 0.00 | 69 | 1021.0 |
| 20260506205558 | 16 | 236 | 4.8 | 9.7 | 0.00 | 0.00 | 0.00 | 69 | 1020.9 |
| 20260506204556 | 16 | 260 | 3.2 | 11.3 | 0.00 | 0.00 | 0.00 | 68 | 1020.9 |
| 20260506203555 | 16 | 268 | 1.6 | 4.8 | 0.00 | 0.00 | 0.00 | 70 | 1020.9 |
| 20260506202553 | 16 | 231 | 3.2 | 6.4 | 0.00 | 0.00 | 0.00 | 69 | 1020.7 |
| 20260506201651 | 16 | 264 | 4.8 | 9.7 | 0.00 | 0.00 | 0.00 | 70 | 1020.7 |
| 20260506200549 | 16 | 246 | 4.8 | 11.3 | 0.00 | 0.00 | 0.00 | 70 | 1020.7 |
| 20260506195548 | 16 | 269 | 6.4 | 12.9 | 0.00 | 0.00 | 0.00 | 69 | 1020.7 |
| 20260506194546 | 16 | 262 | 8.0 | 17.7 | 0.00 | 0.00 | 0.00 | 70 | 1020.5 |
| 20260506193544 | 16 | 233 | 6.4 | 14.5 | 0.00 | 0.00 | 0.00 | 71 | 1020.5 |
| 20260506192543 | 16 | 264 | 3.2 | 6.4 | 0.00 | 0.00 | 0.00 | 72 | 1020.5 |
| 20260506191542 | 15 | 229 | 6.4 | 14.5 | 0.00 | 0.00 | 0.00 | 74 | 1020.5 |
| 20260506190539 | 15 | 214 | 3.2 | 11.3 | 0.00 | 0.00 | 0.00 | 75 | 1020.5 |
| 20260506185538 | 15 | 238 | 1.6 | 3.2 | 0.00 | 0.00 | 0.00 | 76 | 1020.5 |
| 20260506184556 | 14 | 239 | 1.6 | 3.2 | 0.00 | 0.00 | 0.00 | 75 | 1020.6 |
| 20260506183534 | 15 | 270 | 1.6 | 4.8 | 0.00 | 0.00 | 0.00 | 74 | 1020.6 |
| 20260506182533 | 15 | 214 | 4.8 | 12.9 | 0.00 | 0.00 | 0.00 | 75 | 1020.5 |
| 20260506181531 | 15 | 199 | 3.2 | 6.4 | 0.00 | 0.00 | 0.00 | 77 | 1020.4 |
| 20260506180529 | 15 | 235 | 1.6 | 6.4 | 0.00 | 0.00 | 0.00 | 77 | 1020.3 |
| 20260506175528 | 14 | 260 | 1.6 | 6.4 | 0.00 | 0.00 | 0.00 | 77 | 1020.4 |
| 20260506174526 | 14 | 285 | 1.6 | 6.4 | 0.00 | 0.00 | 0.00 | 76 | 1020.4 |
| 20260506173524 | 15 | 261 | 0.0 | 3.2 | 0.00 | 0.00 | 0.00 | 77 | 1020.3 |
| 20260506172542 | 14 | 231 | 3.2 | 12.9 | 0.00 | 0.00 | 0.00 | 78 | 1020.4 |
| 20260506171541 | 14 | 228 | 4.8 | 11.3 | 0.00 | 0.00 | 0.00 | 78 | 1020.4 |
| 20260506170519 | 13 | 219 | 6.4 | 12.9 | 0.00 | 0.00 | 0.00 | 78 | 1020.3 |
| 20260506165539 | 13 | 183 | 6.4 | 11.3 | 0.00 | 0.00 | 0.00 | 78 | 1020.3 |
| 20260506164516 | 13 | 240 | 6.4 | 14.5 | 0.00 | 0.00 | 0.00 | 79 | 1020.3 |
| 20260506163619 | 13 | 242 | 6.4 | 12.9 | 0.00 | 0.00 | 0.00 | 79 | 1020.0 |
| 20260506162613 | 13 | 244 | 6.4 | 11.3 | 0.00 | 0.00 | 0.00 | 80 | 1020.0 |
| 20260506161611 | 13 | 200 | 3.2 | 6.4 | 0.00 | 0.00 | 0.00 | 82 | 1019.9 |
| 20260506160609 | 13 | 229 | 3.2 | 4.8 | 0.00 | 0.00 | 0.00 | 82 | 1020.1 |
| 20260506155608 | 12 | 230 | 4.8 | 9.7 | 0.00 | 0.00 | 0.00 | 83 | 1020.1 |
| 20260506154606 | 12 | 236 | 1.6 | 4.8 | 0.00 | 0.00 | 0.00 | 83 | 1020.1 |
| 20260506153604 | 12 | 235 | 3.2 | 9.7 | 0.00 | 0.00 | 0.00 | 84 | 1020.1 |
| 20260506152602 | 12 | 215 | 1.6 | 4.8 | 0.00 | 0.00 | 0.00 | 85 | 1019.9 |
| 20260506151621 | 12 | 227 | 1.6 | 3.2 | 0.00 | 0.00 | 0.00 | 85 | 1019.8 |
| 20260506150559 | 12 | 217 | 1.6 | 4.8 | 0.00 | 0.00 | 0.00 | 85 | 1020.0 |
| 20260506145618 | 12 | 225 | 3.2 | 9.7 | 0.00 | 0.00 | 0.00 | 85 | 1020.0 |
| 20260506144556 | 12 | 227 | 3.2 | 6.4 | 0.00 | 0.00 | 0.00 | 85 | 1020.0 |
| 20260506143554 | 12 | 228 | 4.8 | 12.9 | 0.00 | 0.00 | 0.00 | 85 | 1019.8 |
| 20260506142552 | 12 | 220 | 1.6 | 4.8 | 0.00 | 0.00 | 0.00 | 86 | 1019.6 |
| 20260506141552 | 12 | 223 | 3.2 | 6.4 | 0.00 | 0.00 | 0.00 | 86 | 1019.7 |
| 20260506140549 | 12 | 199 | 1.6 | 6.4 | 0.00 | 0.00 | 0.00 | 86 | 1019.7 |
| 20260506135548 | 11 | 229 | 3.2 | 6.4 | 0.00 | 0.00 | 0.00 | 86 | 1019.6 |
| 20260506134546 | 11 | 252 | 1.6 | 4.8 | 0.00 | 0.00 | 0.00 | 86 | 1019.8 |
| 20260506133543 | 11 | 235 | 3.2 | 6.4 | 0.00 | 0.00 | 0.00 | 86 | 1019.6 |
| 20260506132542 | 11 | 228 | 4.8 | 11.3 | 0.00 | 0.00 | 0.00 | 86 | 1019.5 |
| 20260506131601 | 11 | 231 | 4.8 | 9.7 | 0.00 | 0.00 | 0.00 | 86 | 1019.3 |
| 20260506130539 | 11 | 232 | 3.2 | 6.4 | 0.00 | 0.00 | 0.00 | 86 | 1019.2 |
| 20260506125537 | 11 | 232 | 3.2 | 6.4 | 0.00 | 0.00 | 0.00 | 86 | 1019.3 |
| 20260506124536 | 11 | 235 | 3.2 | 6.4 | 0.00 | 0.00 | 0.00 | 86 | 1019.2 |
| 20260506123533 | 11 | 202 | 4.8 | 6.4 | 0.00 | 0.00 | 0.00 | 87 | 1018.9 |
| 20260506122531 | 11 | 178 | 1.6 | 3.2 | 0.00 | 0.00 | 0.00 | 87 | 1019.1 |
| 20260506121550 | 11 | 222 | 0.0 | 1.6 | 0.00 | 0.00 | 0.00 | 87 | 1019.1 |
| 20260506120528 | 11 | 0.0 | 0.0 | 0.00 | 0.00 | 0.00 | 87 | 1019.0 | |
| 20260506115527 | 11 | 224 | 0.0 | 1.6 | 0.00 | 0.00 | 0.00 | 87 | 1018.8 |
| 20260506114525 | 11 | 0.0 | 0.0 | 0.00 | 0.00 | 0.00 | 86 | 1018.7 | |
| 20260506113523 | 11 | 215 | 1.6 | 4.8 | 0.00 | 0.00 | 0.00 | 86 | 1018.7 |
| 20260506112541 | 11 | 243 | 1.6 | 4.8 | 0.00 | 0.00 | 0.00 | 86 | 1018.9 |
| 20260506111520 | 11 | 230 | 3.2 | 4.8 | 0.00 | 0.00 | 0.00 | 85 | 1018.7 |
| 20260506110518 | 11 | 252 | 3.2 | 6.4 | 0.00 | 0.00 | 0.00 | 85 | 1018.7 |
| 20260506105536 | 12 | 244 | 3.2 | 6.4 | 0.00 | 0.00 | 0.00 | 85 | 1018.6 |
| 20260506104655 | 12 | 243 | 1.6 | 3.2 | 0.00 | 0.00 | 0.00 | 85 | 1018.5 |
| 20260506103613 | 12 | 242 | 1.6 | 3.2 | 0.00 | 0.00 | 0.00 | 85 | 1018.4 |
| 20260506102612 | 11 | 241 | 1.6 | 3.2 | 0.00 | 0.00 | 0.00 | 85 | 1018.3 |
| 20260506101611 | 11 | 231 | 1.6 | 3.2 | 0.00 | 0.00 | 0.00 | 85 | 1018.1 |
| 20260506100608 | 11 | 245 | 1.6 | 3.2 | 0.00 | 0.00 | 0.00 | 85 | 1018.1 |
| 20260506095606 | 11 | 235 | 3.2 | 4.8 | 0.00 | 0.00 | 0.00 | 85 | 1018.0 |
| 20260506094625 | 11 | 243 | 1.6 | 3.2 | 0.00 | 0.00 | 0.00 | 86 | 1017.9 |
| 20260506093603 | 11 | 243 | 1.6 | 4.8 | 0.00 | 0.00 | 0.00 | 86 | 1017.8 |
| 20260506092602 | 11 | 241 | 3.2 | 6.4 | 0.00 | 0.00 | 0.00 | 86 | 1017.8 |
| 20260506091559 | 11 | 238 | 1.6 | 3.2 | 0.00 | 0.00 | 0.00 | 87 | 1017.8 |
| 20260506090558 | 11 | 235 | 1.6 | 6.4 | 0.00 | 0.00 | 0.00 | 87 | 1017.8 |
| 20260506085557 | 11 | 224 | 0.0 | 3.2 | 0.00 | 0.00 | 0.00 | 87 | 1017.8 |
| 20260506084555 | 11 | 240 | 0.0 | 3.2 | 0.00 | 0.00 | 0.00 | 87 | 1017.7 |
| 20260506083553 | 10 | 0.0 | 0.0 | 0.00 | 0.00 | 0.00 | 86 | 1017.7 | |
| 20260506082551 | 10 | 228 | 0.0 | 1.6 | 0.00 | 0.00 | 0.00 | 85 | 1017.8 |
| 20260506081550 | 10 | 241 | 0.0 | 1.6 | 0.00 | 0.00 | 0.00 | 85 | 1017.7 |
| 20260506080548 | 11 | 240 | 0.0 | 3.2 | 0.00 | 0.00 | 0.00 | 85 | 1017.6 |
| 20260506072541 | 11 | 252 | 1.6 | 6.4 | 0.00 | 0.00 | 0.00 | 84 | 1017.3 |
| 20260506071539 | 11 | 252 | 1.6 | 4.8 | 0.00 | 0.00 | 0.00 | 83 | 1017.1 |
| 20260506070538 | 11 | 247 | 1.6 | 4.8 | 0.00 | 0.00 | 0.00 | 83 | 1017.1 |
| 20260506061529 | 12 | 243 | 4.8 | 11.3 | 0.00 | 0.00 | 0.00 | 81 | 1016.6 |
| 20260506060548 | 12 | 234 | 3.2 | 6.4 | 0.00 | 0.00 | 0.00 | 81 | 1016.4 |
| 20260506050516 | 13 | 240 | 4.8 | 6.4 | 0.00 | 0.00 | 0.00 | 78 | 1016.0 |
| 20260506044613 | 14 | 239 | 4.8 | 9.7 | 0.00 | 0.00 | 0.00 | 77 | 1015.9 |
| 20260506043612 | 14 | 252 | 3.2 | 9.7 | 0.00 | 0.00 | 0.00 | 77 | 1015.9 |
| 20260506042610 | 15 | 246 | 3.2 | 6.4 | 0.00 | 0.00 | 0.00 | 76 | 1015.8 |
| 20260506041608 | 15 | 253 | 1.6 | 4.8 | 0.00 | 0.00 | 0.00 | 76 | 1015.7 |
| 20260506040606 | 15 | 245 | 1.6 | 4.8 | 0.00 | 0.00 | 0.00 | 75 | 1015.7 |
| 20260506035605 | 15 | 248 | 3.2 | 4.8 | 0.00 | 0.00 | 0.00 | 74 | 1015.6 |
| 20260506034603 | 15 | 241 | 3.2 | 4.8 | 0.00 | 0.00 | 0.00 | 73 | 1015.5 |
| 20260506033602 | 16 | 243 | 1.6 | 3.2 | 0.00 | 0.00 | 0.00 | 72 | 1015.3 |
| 20260506032620 | 16 | 238 | 1.6 | 3.2 | 0.00 | 0.00 | 0.00 | 71 | 1015.1 |
| 20260506031558 | 16 | 250 | 1.6 | 4.8 | 0.00 | 0.00 | 0.00 | 71 | 1015.2 |
| 20260506030556 | 17 | 238 | 1.6 | 3.2 | 0.00 | 0.00 | 0.00 | 70 | 1015.2 |
| 20260506025614 | 17 | 237 | 1.6 | 4.8 | 0.00 | 0.00 | 0.00 | 69 | 1015.0 |
| 20260506024552 | 17 | 261 | 1.6 | 4.8 | 0.00 | 0.00 | 0.00 | 68 | 1015.0 |
| 20260506023551 | 18 | 239 | 1.6 | 6.4 | 0.00 | 0.00 | 0.00 | 68 | 1015.0 |
| 20260506022610 | 18 | 242 | 1.6 | 6.4 | 0.00 | 0.00 | 0.00 | 67 | 1015.1 |
| 20260506021547 | 18 | 258 | 3.2 | 6.4 | 0.00 | 0.00 | 0.00 | 67 | 1015.1 |
| 20260506020546 | 18 | 280 | 1.6 | 4.8 | 0.00 | 0.00 | 0.00 | 67 | 1015.1 |
| 20260506015544 | 18 | 259 | 3.2 | 6.4 | 0.00 | 0.00 | 0.00 | 68 | 1015.0 |
| 20260506014543 | 18 | 242 | 3.2 | 9.7 | 0.00 | 0.00 | 0.00 | 68 | 1015.0 |
| 20260506013541 | 18 | 230 | 3.2 | 9.7 | 0.00 | 0.00 | 0.00 | 68 | 1014.9 |
| 20260506012539 | 18 | 244 | 3.2 | 11.3 | 0.00 | 0.00 | 0.00 | 68 | 1015.1 |
| 20260506011538 | 18 | 236 | 4.8 | 11.3 | 0.00 | 0.00 | 0.00 | 67 | 1015.1 |
| 20260506010536 | 18 | 233 | 4.8 | 9.7 | 0.00 | 0.00 | 0.00 | 67 | 1015.1 |
| 20260506005534 | 18 | 254 | 4.8 | 9.7 | 0.00 | 0.00 | 0.00 | 66 | 1015.1 |
| 20260506004533 | 18 | 217 | 3.2 | 6.4 | 0.00 | 0.00 | 0.00 | 66 | 1015.1 |
| 20260506003531 | 18 | 255 | 6.4 | 12.9 | 0.00 | 0.00 | 0.00 | 66 | 1015.3 |
| 20260506002529 | 18 | 272 | 4.8 | 9.7 | 0.00 | 0.00 | 0.00 | 66 | 1015.3 |
| 20260506001547 | 18 | 239 | 3.2 | 4.8 | 0.00 | 0.00 | 0.00 | 65 | 1015.3 |
| 20260506000525 | 18 | 229 | 4.8 | 12.9 | 0.00 | 0.00 | 0.00 | 64 | 1015.3 |
| 20260505235524 | 19 | 221 | 1.6 | 4.8 | 0.00 | 0.00 | 0.00 | 64 | 1015.4 |
| 20260505234542 | 19 | 237 | 4.8 | 9.7 | 0.00 | 0.00 | 0.00 | 64 | 1015.6 |
| 20260505233520 | 19 | 228 | 3.2 | 11.3 | 0.00 | 0.00 | 0.00 | 63 | 1015.7 |
| 20260505232518 | 20 | 248 | 6.4 | 9.7 | 0.00 | 0.00 | 0.00 | 63 | 1015.8 |
| 20260505231516 | 20 | 232 | 4.8 | 9.7 | 0.00 | 0.00 | 0.00 | 61 | 1015.8 |
| 20260505230615 | 20 | 222 | 4.8 | 9.7 | 0.00 | 0.00 | 0.00 | 62 | 1015.9 |
| 20260505225633 | 20 | 237 | 4.8 | 6.4 | 0.00 | 0.00 | 0.00 | 62 | 1015.9 |